Tracking 28126 objects as of 1-Oct-2023
HD Live streaming from Space Station
objects crossing your sky now

COSMOS 839 DEB

Track COSMOS 839 DEB now!
10-day predictions


NORAD ID: 10450
Int'l Code: 1976-067AB
Perigee: 901.3 km
Apogee: 2,068.8 km
Inclination: 65.7 °
Period: 115.5 minutes
Semi major axis: 7856 km
RCS: 0.1765 m2 (medium)
Launch date: July 8, 1976
Source: Commonwealth of Independent States (former USSR) (CIS)
Launch site: PLESETSK MISSILE AND SPACE COMPLEX (PKMTR)

Note: This is SATELLITE DEBRIS
Your satellite tracking list
Your tracking list is empty




NASA's NSSDC Master Catalog

Two Line Element Set (TLE):
1 10450U 76067AB  23273.69659201 -.00000085  00000-0 -71558-4 0  9996
2 10450  65.7467  49.5990 0743079  69.6841 298.2386 12.46795199149372
Source of the keplerian elements: AFSPC